Melfa, VA

2:41 AM EDT on October 23, 2017 (GMT -0400)
Accomack County

Weather History for KMFV - December, 2012

Change the Weather History Date:

Wednesday, December 26, 2012

  Actual Average (KWAL) Record (KWAL)
Temperature  
Mean Temperature 50 °F -  
Max Temperature 60 °F 44 °F 72 °F (1982)
Min Temperature 39 °F 29 °F 8 °F (1983)
Degree Days  
Heating Degree Days 16    
Moisture  
Dew Point 47 °F    
Average Humidity 88    
Maximum Humidity 100    
Minimum Humidity 76    
Precipitation  
Precipitation 2.69 in - - ()
Sea Level Pressure  
Sea Level Pressure 29.77 in    
Wind  
Wind Speed 10 mph (SE)    
Max Wind Speed 28 mph    
Max Gust Speed 40 mph    
Visibility 8 miles    
Events Rain , Thunderstorm    
Averages and records for this station are not official NWS values.
T = Trace of Precipitation, MM = Missing Value Source: NWS Daily Summary

Daily Weather History Graph

Daily Weather History Graph

Search for Another Location

Airport or City:

Trip Planner

Search our weather history database for the weather conditions in past years. The results will help you decide how hot, cold, wet, or windy it might be!

Date:

Astronomy

Dec. 26, 2012 Rise Set
Actual Time 7:16 AM EST 4:51 PM EST
Civil Twilight 6:47 AM EST 5:20 PM EST
Nautical Twilight 6:14 AM EST 5:53 PM EST
Astronomical Twilight 5:42 AM EST 6:25 PM EST
Moon 3:42 PM EST (12/26) 5:38 AM EST (12/26)
Length of Visible Light 10h 33m
Length of Day
9h 34m
Waxing Gibbous, 97% of the Moon is Illuminated
Dec 26
Waxing Gibbous
Dec 28
Full
Jan 4
Last Quarter
Jan 11
New
Jan 18
First Quarter

Hourly Weather History & Observations

Time (EST) Temp. Windchill Dew Point Humidity Pressure Visibility Wind Dir Wind Speed Gust Speed Precip Events Conditions
12:15 AM 39.2 °F 35.0 °F 33.8 °F 81% 30.21 in 10.0 mi SE 5.8 mph - N/A   Clear
12:35 AM 41.0 °F 38.0 °F 33.8 °F 76% 30.22 in 10.0 mi SE 4.6 mph - N/A   Clear
12:55 AM 41.0 °F 36.4 °F 33.8 °F 76% 30.20 in 10.0 mi SE 6.9 mph - N/A   Clear
1:15 AM 41.0 °F 35.8 °F 33.8 °F 76% 30.20 in 10.0 mi SE 8.1 mph - N/A   Clear
1:35 AM 41.0 °F 35.8 °F 33.8 °F 76% 30.20 in 10.0 mi SE 8.1 mph - N/A   Clear
1:55 AM 41.0 °F 35.8 °F 33.8 °F 76% 30.20 in 10.0 mi SE 8.1 mph - N/A   Clear
2:15 AM 41.0 °F 37.1 °F 33.8 °F 76% 30.19 in 10.0 mi SE 5.8 mph - N/A   Scattered Clouds
2:35 AM 41.0 °F 36.4 °F 33.8 °F 76% 30.17 in 10.0 mi SE 6.9 mph - N/A   Mostly Cloudy
2:55 AM 41.0 °F 34.7 °F 33.8 °F 76% 30.16 in 10.0 mi SE 10.4 mph - N/A   Mostly Cloudy
3:15 AM 41.0 °F 35.2 °F 33.8 °F 76% 30.17 in 10.0 mi SE 9.2 mph - N/A   Overcast
3:35 AM 41.0 °F 35.8 °F 33.8 °F 76% 30.15 in 10.0 mi SE 8.1 mph - N/A   Overcast
4:15 AM 41.0 °F 34.7 °F 33.8 °F 76% 30.13 in 10.0 mi SSE 10.4 mph - N/A   Mostly Cloudy
4:35 AM 41.0 °F 36.4 °F 33.8 °F 76% 30.14 in 10.0 mi SE 6.9 mph - N/A   Overcast
4:55 AM 41.0 °F 37.1 °F 35.6 °F 81% 30.14 in 10.0 mi SE 5.8 mph - N/A   Overcast
5:15 AM 41.0 °F 35.2 °F 35.6 °F 81% 30.12 in 10.0 mi SE 9.2 mph - N/A   Overcast
5:36 AM 42.8 °F 38.0 °F 35.6 °F 76% 30.13 in 10.0 mi SE 8.1 mph - N/A   Overcast
5:55 AM 42.8 °F 37.5 °F 35.6 °F 76% 30.12 in 10.0 mi SE 9.2 mph - N/A   Light Drizzle
6:35 AM 42.8 °F 38.0 °F 37.4 °F 81% 30.11 in 10.0 mi SE 8.1 mph - 0.01 in Rain Light Rain
6:57 AM 42.8 °F 38.0 °F 37.4 °F 81% 30.09 in 10.0 mi SE 8.1 mph - N/A Rain Rain
7:16 AM 42.8 °F 36.6 °F 39.2 °F 87% 30.07 in 7.0 mi SSE 11.5 mph - N/A Rain Rain
7:35 AM 44.6 °F 38.4 °F 39.2 °F 81% 30.07 in 7.0 mi SSE 12.7 mph - N/A   Light Drizzle
7:56 AM 44.6 °F 39.2 °F 41.0 °F 87% 30.05 in 10.0 mi SSE 10.4 mph - N/A Rain Rain
8:16 AM 44.6 °F 38.1 °F 42.8 °F 93% 30.04 in 10.0 mi South 13.8 mph 23.0 mph 0.01 in Rain Light Rain
8:36 AM 46.4 °F 39.8 °F 42.8 °F 87% 30.03 in 7.0 mi South 16.1 mph 23.0 mph 0.02 in Rain Light Rain
8:55 AM 46.4 °F 39.5 °F 42.8 °F 87% 30.01 in 7.0 mi South 17.3 mph 21.9 mph 0.03 in Rain Light Rain
9:15 AM 46.4 °F 39.2 °F 42.8 °F 87% 29.99 in 10.0 mi SSW 18.4 mph 27.6 mph 0.01 in   Light Drizzle
9:35 AM 46.4 °F 39.5 °F 44.6 °F 93% 29.98 in 5.0 mi South 17.3 mph 25.3 mph 0.02 in Rain Light Rain
9:55 AM 46.4 °F 39.8 °F 44.6 °F 93% 29.97 in 7.0 mi South 16.1 mph 24.2 mph 0.03 in Rain Light Rain
10:15 AM 48.2 °F - 44.6 °F 87% 29.96 in 7.0 mi SSW 19.6 mph 31.1 mph 0.01 in Rain Light Rain
10:35 AM 48.2 °F - 46.4 °F 93% 29.95 in 7.0 mi SSW 18.4 mph 27.6 mph 0.03 in Rain Rain
10:55 AM 48.2 °F - 46.4 °F 93% 29.91 in 7.0 mi SSW 17.3 mph 31.1 mph 0.09 in Rain Light Rain
11:15 AM 48.2 °F - 46.4 °F 93% 29.88 in 7.0 mi SW 23.0 mph 33.4 mph 0.03 in Rain Light Rain
11:35 AM 50.0 °F - 46.4 °F 87% 29.84 in 5.0 mi SW 23.0 mph 29.9 mph 0.07 in Rain Light Rain
11:55 AM 50.0 °F - 48.2 °F 94% 29.81 in 4.0 mi WSW 25.3 mph 33.4 mph 0.13 in Rain Rain
12:15 PM 50.0 °F - 48.2 °F 94% 29.78 in 5.0 mi WSW 27.6 mph 40.3 mph 0.08 in Rain Light Rain
12:35 PM 50.0 °F - 48.2 °F 94% 29.75 in 4.0 mi SW 23.0 mph 36.8 mph 0.14 in Rain Rain
12:55 PM 51.8 °F - 48.2 °F 88% 29.72 in 5.0 mi WSW 26.5 mph 35.7 mph 0.20 in Rain Rain
1:15 PM 51.8 °F - 48.2 °F 88% 29.69 in 5.0 mi South 15.0 mph 38.0 mph 0.06 in Rain Light Rain
1:35 PM 51.8 °F - 50.0 °F 94% 29.67 in 5.0 mi SSW 17.3 mph 29.9 mph 0.14 in Rain Rain
1:55 PM 53.6 °F - 51.8 °F 94% 29.67 in 4.0 mi SSE 11.5 mph 20.7 mph 0.19 in Rain Heavy Rain
2:15 PM 53.6 °F - 51.8 °F 94% 29.64 in 3.0 mi South 12.7 mph 21.9 mph 0.16 in Rain Heavy Rain
2:35 PM 55.4 °F - 53.6 °F 94% 29.63 in 2.5 mi South 12.7 mph 29.9 mph 0.38 in Rain Heavy Rain
2:56 PM 57.2 °F - 55.4 °F 94% 29.59 in 1.5 mi SE 8.1 mph 18.4 mph 0.01 in Rain Heavy Rain
3:15 PM 57.2 °F - 55.4 °F 94% 29.59 in 5.0 mi South 11.5 mph 18.4 mph 0.13 in Rain Heavy Rain
3:35 PM 59.0 °F - 57.2 °F 94% 29.57 in 7.0 mi SE 10.4 mph 18.4 mph 0.19 in Rain Rain
3:55 PM 59.0 °F - 57.2 °F 94% 29.51 in 7.0 mi SE 9.2 mph 23.0 mph 0.24 in Rain , Thunderstorm Light Thunderstorms and Rain
4:15 PM 60.8 °F - 57.2 °F 88% 29.50 in 5.0 mi SE 8.1 mph 17.3 mph 0.03 in Rain , Thunderstorm Rain
4:35 PM 60.8 °F - 57.2 °F 88% 29.50 in 1.8 mi East 8.1 mph - 0.36 in Rain , Thunderstorm Heavy Thunderstorms and Rain
4:55 PM 60.8 °F - 60.8 °F 100% 29.47 in 7.0 mi East 8.1 mph 18.4 mph 0.46 in Rain Heavy Rain
5:15 PM 60.8 °F - 59.0 °F 94% 29.47 in 1.8 mi ESE 12.7 mph 28.8 mph 0.55 in Rain Heavy Rain
5:35 PM 60.8 °F - 59.0 °F 94% 29.43 in 10.0 mi Calm Calm - 0.83 in Rain Light Rain
5:55 PM 60.8 °F - 57.2 °F 88% 29.41 in 10.0 mi ESE 6.9 mph - 0.84 in Rain Light Rain
6:15 PM 60.8 °F - 57.2 °F 88% 29.42 in 10.0 mi East 10.4 mph - N/A   Overcast
6:35 PM 60.8 °F - 57.2 °F 88% 29.41 in 10.0 mi East 10.4 mph - N/A   Mostly Cloudy
6:55 PM 60.8 °F - 57.2 °F 88% 29.40 in 10.0 mi East 11.5 mph - N/A Thunderstorm Overcast
7:15 PM 60.8 °F - 57.2 °F 88% 29.39 in 5.0 mi East 10.4 mph 19.6 mph N/A   Overcast
7:35 PM 59.0 °F - 57.2 °F 94% 29.38 in 5.0 mi ENE 12.7 mph 20.7 mph N/A   Overcast
7:55 PM 59.0 °F - 57.2 °F 94% 29.36 in 5.0 mi East 11.5 mph 20.7 mph N/A   Overcast
8:15 PM 59.0 °F - 57.2 °F 94% 29.38 in 5.0 mi ESE 6.9 mph 11.5 mph 0.01 in Rain Rain
8:35 PM 59.0 °F - 57.2 °F 94% 29.38 in 5.0 mi ESE 6.9 mph - 0.05 in Rain Rain
8:55 PM 59.0 °F - 57.2 °F 94% 29.37 in 5.0 mi ESE 6.9 mph - 0.08 in Rain Light Rain
9:15 PM 59.0 °F - 57.2 °F 94% 29.36 in 7.0 mi ESE 5.8 mph - 0.01 in Rain Light Rain
9:35 PM 59.0 °F - 57.2 °F 94% 29.35 in 7.0 mi ESE 9.2 mph - 0.01 in   Overcast
9:55 PM 59.0 °F - 57.2 °F 94% 29.36 in 10.0 mi ESE 9.2 mph - 0.01 in   Overcast
10:16 PM 57.2 °F - 55.4 °F 94% 29.37 in 10.0 mi East 16.1 mph 21.9 mph N/A   Overcast
10:35 PM 53.6 °F - 51.8 °F 94% 29.38 in 10.0 mi ESE 16.1 mph 23.0 mph N/A   Overcast
10:55 PM 51.8 °F - 48.2 °F 88% 29.40 in 10.0 mi East 13.8 mph 24.2 mph N/A   Overcast
11:15 PM 50.0 °F - 48.2 °F 94% 29.40 in 10.0 mi East 11.5 mph 18.4 mph N/A   Overcast
11:35 PM 48.2 °F - 46.4 °F 93% 29.40 in 10.0 mi East 13.8 mph 23.0 mph N/A   Overcast
11:55 PM 48.2 °F - 44.6 °F 87% 29.40 in 10.0 mi East 11.5 mph 17.3 mph N/A   Overcast